This is the latest recevied weather packets stored in our database for station/object W0SS-13. If no packets are shown the sender has not sent any weather packets the latest 10 day(s).
| Time | Temp. | Humidity | Pressure | Rain* | Wind** | Luminosity | Snow |
|---|---|---|---|---|---|---|---|
| 1777837803 | 26.67° C | 36% | 1011.2 hPa | 0 mm | - | 730 W/m² | - |
| 1777837501 | 26.11° C | 37% | 1011.4 hPa | 0 mm | - | 738 W/m² | - |
| 1777837195 | 26.67° C | 41% | 1011.2 hPa | 0 mm | - | 741 W/m² | - |
| 1777836891 | 26.11° C | 41% | 1011.6 hPa | 0 mm | - | 699 W/m² | - |
| 1777836587 | 26.11° C | 42% | 1011.6 hPa | 0 mm | - | 757 W/m² | - |
| 1777836284 | 26.11° C | 42% | 1011.6 hPa | 0 mm | - | 759 W/m² | - |
| 1777835979 | 26.11° C | 41% | 1011.8 hPa | 0 mm | - | 767 W/m² | - |
| 1777835677 | 26.11° C | 41% | 1011.7 hPa | 0 mm | - | 777 W/m² | - |
| 1777835373 | 25.56° C | 42% | 1012.1 hPa | 0 mm | - | 779 W/m² | - |
| 1777835071 | 25.56° C | 45% | 1012 hPa | 0 mm | - | 781 W/m² | - |
| 1777834768 | 25.56° C | 41% | 1012.1 hPa | 0 mm | - | 787 W/m² | - |
| 1777834464 | 25.56° C | 44% | 1012.2 hPa | 0 mm | - | 788 W/m² | - |
| 1777834163 | 25° C | 43% | 1012.4 hPa | 0 mm | - | 791 W/m² | - |
| 1777833860 | 25° C | 41% | 1012.4 hPa | 0 mm | - | 795 W/m² | - |
| 1777833556 | 24.44° C | 43% | 1012.5 hPa | 0 mm | - | 794 W/m² | - |
| 1777833253 | 24.44° C | 44% | 1012.4 hPa | 0 mm | - | 801 W/m² | - |
| 1777832950 | 24.44° C | 44% | 1012.5 hPa | 0 mm | - | 803 W/m² | - |
| 1777832649 | 23.89° C | 45% | 1012.3 hPa | 0 mm | - | 803 W/m² | - |
| 1777832346 | 23.89° C | 47% | 1012.7 hPa | 0 mm | - | 807 W/m² | - |
| 1777832043 | 23.89° C | 44% | 1012.8 hPa | 0 mm | - | 805 W/m² | - |
| 1777831739 | 23.89° C | 43% | 1012.8 hPa | 0 mm | - | 804 W/m² | - |
| 1777831437 | 23.89° C | 45% | 1012.9 hPa | 0 mm | - | 803 W/m² | - |
| 1777831133 | 23.89° C | 45% | 1013 hPa | 0 mm | - | 802 W/m² | - |
| 1777830831 | 23.33° C | 45% | 1013 hPa | 0 mm | - | 800 W/m² | - |
| 1777830527 | 22.78° C | 45% | 1013 hPa | 0 mm | - | 800 W/m² | - |
* Rain latest hour (hover to see other rain measurements)
** Current wind speed in m/s (hover to see current wind gust speed)